Tracking 29090 objects as of 15-Jul-2024
HD Live streaming from Space Station
objects crossing your sky now

TIROS 9

Track TIROS 9 now!
10-day predictions
TIROS 9 is classified as:


NORAD ID: 978
Int'l Code: 1965-004A
Perigee: 710.4 km
Apogee: 2,567.6 km
Inclination: 96.4 °
Period: 118.9 minutes
Semi major axis: 8009 km
RCS: 0.8367 m2 (medium)
Launch date: January 22, 1965
Source: United States (US)
Launch site: AIR FORCE EASTERN TEST RANGE (AFETR)
Your satellite tracking list
Your tracking list is empty




NASA's NSSDC Master Catalog

Two Line Element Set (TLE):
1 00978U 65004A   24196.94264436  .00000089  00000-0  11902-3 0  9992
2 00978  96.4112 317.3137 1159262 113.2863 259.4385 12.11028452626606
Source of the keplerian elements: AFSPC